Starlink 30239

operational
NORAD ID: 57291 Int'l Des: 2023-096 Owner: SPXS Country: US Constellation: starlink
LEOCIRCULAR

Starlink 30239について

説明を読み込み中...

リアルタイム位置

3D地球を読み込み中...

次回通過

高度履歴

Altitude vs Time

uPlot chart will show altitude changes over time

軌道要素

1 57291U 23096B 25307.98141711 .00001404 00000-0 11900-3 0 9996
2 57291 43.0024 186.5680 0001237 269.4637 90.6064 15.02534384128701
Epoch: Nov 3, 2025 • Age: 17 hours

現在のステータス

高度 558.6 km
速度 7.59 km/s
衛星直下点 16.35°N, 57.44°E
打ち上げ日 Jul 10, 2023
運用期間 2.3 years
タイプ internet

技術仕様

分類 Payload
質量 730.00 kg
乾燥質量 700.00 kg
総質量 730.00 kg
長さ 0.30 m
直径 4.10 m
スパン 29.00 m
形状 Box + pan
製造者 SPXS
バスタイプ Starlink V2M
フェーズステータス In Orbit
所有者/国 SPXS/US

大規模コンステレーション

Loading constellations...